UR3PDA-3 Weather Reports


time (UTC)temp
C
wind
direction
speed
KPH
gust
KPH
rain 1hr
cm
rain 24hr
cm
rain mn
cm
humidity
%
barometer
mb
20260507124132 30 0.0 0.0 0.00 0.00 0.00 12 982.2
20260507123532 30 0.0 0.0 0.00 0.00 0.00 12 982.2
20260507122932 30 0.0 0.0 0.00 0.00 0.00 41 982.2
20260507122332 31 0.0 0.0 0.00 0.00 0.00 35 982.3
20260507121732 32 0.0 0.0 0.00 0.00 0.00 37 982.4
20260507121132 31 0.0 0.0 0.00 0.00 0.00 41 982.3
20260507120532 30 0.0 0.0 0.00 0.00 0.00 12 982.4
20260507115932 30 0.0 0.0 0.00 0.00 0.00 41 982.4
20260507115332 30 0.0 0.0 0.00 0.00 0.00 41 982.5
20260507114732 29 0.0 0.0 0.00 0.00 0.00 982.6
20260507114132 28 0.0 0.0 0.00 0.00 0.00 41 982.6
20260507113532 28 0.0 0.0 0.00 0.00 0.00 41 982.7
20260507112932 29 0.0 0.0 0.00 0.00 0.00 41 982.6
20260507112332 29 0.0 0.0 0.00 0.00 0.00 41 982.6
20260507111731 29 0.0 0.0 0.00 0.00 0.00 41 982.5
20260507111131 28 0.0 0.0 0.00 0.00 0.00 35 982.6
20260507110531 29 0.0 0.0 0.00 0.00 0.00 30 982.5
20260507105931 31 0.0 0.0 0.00 0.00 0.00 41 982.6
20260507105331 31 0.0 0.0 0.00 0.00 0.00 34 982.5
20260507104731 32 0.0 0.0 0.00 0.00 0.00 25 982.6
20260507104131 32 0.0 0.0 0.00 0.00 0.00 34 982.6
20260507103531 33 0.0 0.0 0.00 0.00 0.00 34 982.6
20260507102931 32 0.0 0.0 0.00 0.00 0.00 35 982.8
20260507102331 31 0.0 0.0 0.00 0.00 0.00 12 982.8
20260507101731 32 0.0 0.0 0.00 0.00 0.00 40 982.8
20260507101131 31 0.0 0.0 0.00 0.00 0.00 12 982.8
20260507100531 30 0.0 0.0 0.00 0.00 0.00 41 982.9
20260507095931 30 0.0 0.0 0.00 0.00 0.00 982.8
20260507095330 30 0.0 0.0 0.00 0.00 0.00 982.9
20260507094730 29 0.0 0.0 0.00 0.00 0.00 983.0
20260507094130 30 0.0 0.0 0.00 0.00 0.00 12 983.0
20260507093530 30 0.0 0.0 0.00 0.00 0.00 41 983.1
20260507092930 31 0.0 0.0 0.00 0.00 0.00 983.1
20260507092330 31 0.0 0.0 0.00 0.00 0.00 983.1
20260507091730 31 0.0 0.0 0.00 0.00 0.00 983.1
20260507091136 31 0.0 0.0 0.00 0.00 0.00 983.1
20260507090535 30 0.0 0.0 0.00 0.00 0.00 983.2
20260507085935 30 0.0 0.0 0.00 0.00 0.00 983.2
20260507085335 29 0.0 0.0 0.00 0.00 0.00 10 983.3
20260507084734 28 0.0 0.0 0.00 0.00 0.00 10 983.3
20260507084134 28 0.0 0.0 0.00 0.00 0.00 11 983.2
20260507083534 28 0.0 0.0 0.00 0.00 0.00 13 983.2
20260507082933 28 0.0 0.0 0.00 0.00 0.00 11 983.1
20260507082333 28 0.0 0.0 0.00 0.00 0.00 14 983.2
20260507081733 27 0.0 0.0 0.00 0.00 0.00 13 983.1
20260507081132 27 0.0 0.0 0.00 0.00 0.00 14 983.2
20260507080532 27 0.0 0.0 0.00 0.00 0.00 14 983.2
20260507075931 27 0.0 0.0 0.00 0.00 0.00 14 983.2
20260507075331 27 0.0 0.0 0.00 0.00 0.00 14 983.1
20260507074731 27 0.0 0.0 0.00 0.00 0.00 14 983.1
20260507074130 27 0.0 0.0 0.00 0.00 0.00 16 983.3
20260507073530 26 0.0 0.0 0.00 0.00 0.00 17 983.3
20260507072930 26 0.0 0.0 0.00 0.00 0.00 16 983.3
20260507072329 26 0.0 0.0 0.00 0.00 0.00 18 983.3
20260507071729 26 0.0 0.0 0.00 0.00 0.00 18 983.3
20260507071129 26 0.0 0.0 0.00 0.00 0.00 18 983.3
20260507070528 26 0.0 0.0 0.00 0.00 0.00 18 983.3
20260507065928 25 0.0 0.0 0.00 0.00 0.00 18 983.3
20260507065328 25 0.0 0.0 0.00 0.00 0.00 19 983.4
20260507064727 25 0.0 0.0 0.00 0.00 0.00 18 983.4
20260507064127 25 0.0 0.0 0.00 0.00 0.00 19 983.3
20260507063527 25 0.0 0.0 0.00 0.00 0.00 19 983.2
20260507062926 23 0.0 0.0 0.00 0.00 0.00 19 983.2
20260507062326 23 0.0 0.0 0.00 0.00 0.00 19 983.1
20260507061726 23 0.0 0.0 0.00 0.00 0.00 19 983.1
20260507061125 23 0.0 0.0 0.00 0.00 0.00 19 983.1
20260507060525 23 0.0 0.0 0.00 0.00 0.00 20 983.1
20260507055924 23 0.0 0.0 0.00 0.00 0.00 20 983.1
20260507055324 23 0.0 0.0 0.00 0.00 0.00 20 983.1
20260507054724 22 0.0 0.0 0.00 0.00 0.00 20 983.1
20260507054123 22 0.0 0.0 0.00 0.00 0.00 20 983.0
20260507053523 22 0.0 0.0 0.00 0.00 0.00 20 983.0
20260507052923 22 0.0 0.0 0.00 0.00 0.00 20 983.1
20260507052322 22 0.0 0.0 0.00 0.00 0.00 20 983.0
20260507051722 22 0.0 0.0 0.00 0.00 0.00 20 983.0
20260507051122 22 0.0 0.0 0.00 0.00 0.00 20 983.0
20260507050521 21 0.0 0.0 0.00 0.00 0.00 22 982.9
20260507045921 21 0.0 0.0 0.00 0.00 0.00 22 982.9
20260507045321 21 0.0 0.0 0.00 0.00 0.00 22 982.9
20260507044720 21 0.0 0.0 0.00 0.00 0.00 22 982.8
20260507044120 20 0.0 0.0 0.00 0.00 0.00 22 982.8
20260507043520 20 0.0 0.0 0.00 0.00 0.00 22 982.8
20260507042919 20 0.0 0.0 0.00 0.00 0.00 22 982.8
20260507042319 19 0.0 0.0 0.00 0.00 0.00 22 982.8
20260507041719 18 0.0 0.0 0.00 0.00 0.00 23 982.8
20260507041118 18 0.0 0.0 0.00 0.00 0.00 23 982.7
20260507040518 18 0.0 0.0 0.00 0.00 0.00 23 982.7
20260507035917 17 0.0 0.0 0.00 0.00 0.00 23 982.7
20260507035317 17 0.0 0.0 0.00 0.00 0.00 24 982.7
20260507034115 17 0.0 0.0 0.00 0.00 0.00 23 982.6
20260507033515 17 0.0 0.0 0.00 0.00 0.00 23 982.5
20260507032914 17 0.0 0.0 0.00 0.00 0.00 23 982.5
20260507032313 16 0.0 0.0 0.00 0.00 0.00 23 982.4
20260507031713 16 0.0 0.0 0.00 0.00 0.00 24 982.3
20260507031112 16 0.0 0.0 0.00 0.00 0.00 23 982.4
20260507030512 16 0.0 0.0 0.00 0.00 0.00 23 982.3
20260507025911 16 0.0 0.0 0.00 0.00 0.00 23 982.4
20260507025310 16 0.0 0.0 0.00 0.00 0.00 23 982.4
20260507024710 16 0.0 0.0 0.00 0.00 0.00 23 982.3
20260507024109 16 0.0 0.0 0.00 0.00 0.00 23 982.3
20260507023508 16 0.0 0.0 0.00 0.00 0.00 23 982.3
20260507022908 16 0.0 0.0 0.00 0.00 0.00 23 982.3
20260507022307 16 0.0 0.0 0.00 0.00 0.00 23 982.3
20260507021706 16 0.0 0.0 0.00 0.00 0.00 23 982.3
20260507021106 16 0.0 0.0 0.00 0.00 0.00 23 982.4
20260507020505 16 0.0 0.0 0.00 0.00 0.00 23 982.4
20260507015904 16 0.0 0.0 0.00 0.00 0.00 23 982.4
20260507015306 16 0.0 0.0 0.00 0.00 0.00 23 982.4
20260507014703 16 0.0 0.0 0.00 0.00 0.00 23 982.4
20260507014102 16 0.0 0.0 0.00 0.00 0.00 23 982.4
20260507013502 16 0.0 0.0 0.00 0.00 0.00 23 982.3
20260507012901 16 0.0 0.0 0.00 0.00 0.00 23 982.2
20260507012300 16 0.0 0.0 0.00 0.00 0.00 23 982.2
20260507011700 16 0.0 0.0 0.00 0.00 0.00 23 982.2
20260507011059 17 0.0 0.0 0.00 0.00 0.00 23 982.2
20260507010458 16 0.0 0.0 0.00 0.00 0.00 23 982.2
20260507005858 16 0.0 0.0 0.00 0.00 0.00 23 982.2
20260507005257 16 0.0 0.0 0.00 0.00 0.00 23 982.2
20260507004656 16 0.0 0.0 0.00 0.00 0.00 23 982.2
20260507004056 16 0.0 0.0 0.00 0.00 0.00 23 982.2
20260507003455 16 0.0 0.0 0.00 0.00 0.00 23 982.2
20260507002855 16 0.0 0.0 0.00 0.00 0.00 23 982.2
20260507002254 16 0.0 0.0 0.00 0.00 0.00 23 982.2
20260507001654 16 0.0 0.0 0.00 0.00 0.00 23 982.2
20260507001053 16 0.0 0.0 0.00 0.00 0.00 23 982.1
20260507000452 16 0.0 0.0 0.00 0.00 0.00 23 982.1
20260506235852 16 0.0 0.0 0.00 0.00 0.00 23 982.1
20260506235251 16 0.0 0.0 0.00 0.00 0.00 23 982.1
20260506234650 16 0.0 0.0 0.00 0.00 0.00 22 982.1
20260506234050 16 0.0 0.0 0.00 0.00 0.00 22 982.2
20260506233449 16 0.0 0.0 0.00 0.00 0.00 22 982.2
20260506232848 16 0.0 0.0 0.00 0.00 0.00 22 982.3
20260506232248 16 0.0 0.0 0.00 0.00 0.00 22 982.2
20260506231647 16 0.0 0.0 0.00 0.00 0.00 22 982.2
20260506231047 16 0.0 0.0 0.00 0.00 0.00 22 982.2
20260506230446 17 0.0 0.0 0.00 0.00 0.00 20 982.3
20260506225845 16 0.0 0.0 0.00 0.00 0.00 20 982.3
20260506225245 17 0.0 0.0 0.00 0.00 0.00 20 982.3
20260506224644 17 0.0 0.0 0.00 0.00 0.00 20 982.4
20260506224043 17 0.0 0.0 0.00 0.00 0.00 20 982.4
20260506223443 17 0.0 0.0 0.00 0.00 0.00 19 982.4
20260506222842 17 0.0 0.0 0.00 0.00 0.00 19 982.3
20260506222241 17 0.0 0.0 0.00 0.00 0.00 19 982.3
20260506221641 18 0.0 0.0 0.00 0.00 0.00 19 982.2
20260506221040 18 0.0 0.0 0.00 0.00 0.00 19 982.2
20260506220439 18 0.0 0.0 0.00 0.00 0.00 19 982.1
20260506215839 18 0.0 0.0 0.00 0.00 0.00 19 982.1
20260506215238 18 0.0 0.0 0.00 0.00 0.00 19 982.1
20260506214637 18 0.0 0.0 0.00 0.00 0.00 19 982.0
20260506214037 18 0.0 0.0 0.00 0.00 0.00 19 982.0
20260506213436 18 0.0 0.0 0.00 0.00 0.00 19 981.9
20260506212835 18 0.0 0.0 0.00 0.00 0.00 19 981.9
20260506212235 18 0.0 0.0 0.00 0.00 0.00 19 981.9
20260506211634 18 0.0 0.0 0.00 0.00 0.00 18 981.9
20260506211033 18 0.0 0.0 0.00 0.00 0.00 19 981.8
20260506210433 18 0.0 0.0 0.00 0.00 0.00 19 981.7
20260506205832 18 0.0 0.0 0.00 0.00 0.00 19 981.7
20260506205231 18 0.0 0.0 0.00 0.00 0.00 19 981.6
20260506204631 18 0.0 0.0 0.00 0.00 0.00 19 981.6
20260506204030 17 0.0 0.0 0.00 0.00 0.00 19 981.5
20260506203429 17 0.0 0.0 0.00 0.00 0.00 19 981.5
20260506202829 17 0.0 0.0 0.00 0.00 0.00 19 981.5
20260506202228 18 0.0 0.0 0.00 0.00 0.00 18 981.4
20260506201627 18 0.0 0.0 0.00 0.00 0.00 17 981.4
20260506201027 19 0.0 0.0 0.00 0.00 0.00 17 981.4
20260506200426 19 0.0 0.0 0.00 0.00 0.00 16 981.3
20260506195825 19 0.0 0.0 0.00 0.00 0.00 17 981.3
20260506195225 18 0.0 0.0 0.00 0.00 0.00 17 981.3
20260506194624 18 0.0 0.0 0.00 0.00 0.00 17 981.3
20260506194023 18 0.0 0.0 0.00 0.00 0.00 17 981.3
20260506193423 18 0.0 0.0 0.00 0.00 0.00 14 981.3
20260506192822 18 0.0 0.0 0.00 0.00 0.00 11 981.3
20260506192222 20 0.0 0.0 0.00 0.00 0.00 981.2
20260506191621 21 0.0 0.0 0.00 0.00 0.00 981.1
20260506191020 21 0.0 0.0 0.00 0.00 0.00 981.1
20260506190420 21 0.0 0.0 0.00 0.00 0.00 980.9
20260506185819 22 0.0 0.0 0.00 0.00 0.00 43 981.0
20260506185218 22 0.0 0.0 0.00 0.00 0.00 980.9
20260506184618 22 0.0 0.0 0.00 0.00 0.00 43 980.9
20260506184017 23 0.0 0.0 0.00 0.00 0.00 980.8
20260506183416 23 0.0 0.0 0.00 0.00 0.00 43 980.8
20260506182816 23 0.0 0.0 0.00 0.00 0.00 38 980.7
20260506182215 23 0.0 0.0 0.00 0.00 0.00 38 980.6
20260506181614 23 0.0 0.0 0.00 0.00 0.00 31 980.6
20260506181014 23 0.0 0.0 0.00 0.00 0.00 31 980.5
20260506180413 24 0.0 0.0 0.00 0.00 0.00 32 980.4
20260506175812 24 0.0 0.0 0.00 0.00 0.00 31 980.4
20260506175212 24 0.0 0.0 0.00 0.00 0.00 31 980.3
20260506174611 25 0.0 0.0 0.00 0.00 0.00 31 980.3
20260506174010 25 0.0 0.0 0.00 0.00 0.00 24 980.2
20260506173410 25 0.0 0.0 0.00 0.00 0.00 26 980.2
20260506172809 25 0.0 0.0 0.00 0.00 0.00 26 980.1
20260506172209 25 0.0 0.0 0.00 0.00 0.00 26 980.1
20260506171608 25 0.0 0.0 0.00 0.00 0.00 29 980.0
20260506171007 25 0.0 0.0 0.00 0.00 0.00 23 979.9
20260506170406 25 0.0 0.0 0.00 0.00 0.00 23 979.9
20260506165806 26 0.0 0.0 0.00 0.00 0.00 26 979.9
20260506165205 26 0.0 0.0 0.00 0.00 0.00 26 979.9
20260506164604 27 0.0 0.0 0.00 0.00 0.00 22 979.9
20260506164004 28 0.0 0.0 0.00 0.00 0.00 22 979.8
20260506163404 28 0.0 0.0 0.00 0.00 0.00 11 979.6
20260506162803 28 0.0 0.0 0.00 0.00 0.00 16 979.7
20260506162202 28 0.0 0.0 0.00 0.00 0.00 10 979.6
20260506161602 28 0.0 0.0 0.00 0.00 0.00 20 979.6
20260506161001 28 0.0 0.0 0.00 0.00 0.00 19 979.6
20260506160400 28 0.0 0.0 0.00 0.00 0.00 19 979.6
20260506155800 29 0.0 0.0 0.00 0.00 0.00 28 979.6
20260506155159 29 0.0 0.0 0.00 0.00 0.00 10 979.6
20260506154558 29 0.0 0.0 0.00 0.00 0.00 10 979.6
20260506153958 30 0.0 0.0 0.00 0.00 0.00 28 979.8
20260506153357 29 0.0 0.0 0.00 0.00 0.00 979.8
20260506152757 28 0.0 0.0 0.00 0.00 0.00 14 979.8
20260506152156 29 0.0 0.0 0.00 0.00 0.00 23 979.9
20260506151555 29 0.0 0.0 0.00 0.00 0.00 14 979.9
20260506150955 28 0.0 0.0 0.00 0.00 0.00 980.0
20260506150354 27 0.0 0.0 0.00 0.00 0.00 29 980.0
20260506145753 27 0.0 0.0 0.00 0.00 0.00 24 979.9
20260506145153 28 0.0 0.0 0.00 0.00 0.00 16 979.9
20260506144552 28 0.0 0.0 0.00 0.00 0.00 20 979.9
20260506143951 28 0.0 0.0 0.00 0.00 0.00 14 979.9
20260506143351 29 0.0 0.0 0.00 0.00 0.00 23 979.9
20260506142750 31 0.0 0.0 0.00 0.00 0.00 14 979.9
20260506142149 30 0.0 0.0 0.00 0.00 0.00 19 980.0
20260506141549 30 0.0 0.0 0.00 0.00 0.00 28 980.0
20260506140948 31 0.0 0.0 0.00 0.00 0.00 28 980.0
20260506140347 31 0.0 0.0 0.00 0.00 0.00 26 979.9
20260506135747 31 0.0 0.0 0.00 0.00 0.00 11 980.0
20260506135146 31 0.0 0.0 0.00 0.00 0.00 14 979.9
20260506134545 31 0.0 0.0 0.00 0.00 0.00 23 980.0
20260506133945 32 0.0 0.0 0.00 0.00 0.00 10 980.0
20260506133342 32 0.0 0.0 0.00 0.00 0.00 10 980.0
20260506132742 32 0.0 0.0 0.00 0.00 0.00 10 980.2
20260506132141 31 0.0 0.0 0.00 0.00 0.00 13 980.3
20260506131541 31 0.0 0.0 0.00 0.00 0.00 11 980.3
20260506130941 32 0.0 0.0 0.00 0.00 0.00 13 980.2
20260506130340 32 0.0 0.0 0.00 0.00 0.00 13 980.3
20260506125740 32 0.0 0.0 0.00 0.00 0.00 22 980.4
20260506125139 32 0.0 0.0 0.00 0.00 0.00 18 980.3
20260506124539 31 0.0 0.0 0.00 0.00 0.00 13 980.4